sat.trackr.live / text

‹ back to catalog

STARLINK-32592

NORAD 62035 · 2024-216D

PAYLOAD ACTIVE UNKNOWN

§ Identity

Operator
Country
US
Launch date
2024-11-21
Launch site
AFETR
Launch vehicle
Mass (kg)
RCS (m²)

Purposes: comms

External: N2YO · Heavens-Above · Gunter

§ Orbital elements

Epoch: 2026-09-21T08:16:54.684768Z

Period
94.27 min
Inclination
43.0010°
Eccentricity
0.0001867
Mean motion
15.27591381 rev/d
Perigee alt
481.7 km
Apogee alt
484.3 km
Semi-major
6,861.2 km
B*
4.8303e-4
RAAN
238.7159°
Arg perigee
283.2768°
Mean anomaly
76.7875°
Rev number
10,372

§ Raw data

STARLINK-325921 62035U 24216D   26264.34507737  .00013058  00000+0  48303-3 0  99942 62035  43.0010 238.7159 0001867 283.2768  76.7875 15.27591381103724

JSON: /api/v1/satellites/62035 · /tle

For live sub-satellite position, see the globe view (requires WebGL).

§ Visibility from observer

Set your observer location to see the next 7 days of passes ≥ 10°. The values pass through the URL so the page stays shareable.

No JS? Fill the form by hand. The geolocation button needs JavaScript.